Hourly Data Report for November 14, 2017

All times are specified in Local Standard Time (LST). Add 1 hour to adjust for Daylight Saving Time where and when it is observed.

GREENWOOD A
NOVA SCOTIA

44°59'00.000" N
64°55'00.000" W
28.00 m
8202000
71397
YZX

Download Data

Hourly Data (November 2017)
Hourly Data Report for November 14, 2017
Temp Definition
°C
Dew Point Temp Definition
°C
Rel Hum Definition
%
Wind Dir Definition
10's deg

Wind Spd Definition
km/h
Visibility Definition
km
Stn Press Definition
kPa
Hmdx Definition


Wind Chill Definition


Weather Definition


TIME
00:00 2.9 1.8 92 11 6 19.3 102.15     Rain,Snow
01:00 3.0 2.1 94 6 6 24.1 102.07     Cloudy
02:00 3.2 2.1 92 36 7 24.1 102.02     Cloudy
03:00 2.9 2.5 97 3 6 8.0 102.09     Rain,Snow,Fog
04:00 2.7 2.0 95 3 19 6.4 102.10     Rain,Fog
05:00 2.1 1.4 95 4 17 4.8 102.07     Rain,Fog
06:00 1.4 -0.1 90 5 19 19.3 102.07     Mostly Cloudy
07:00 0.7 -0.3 93 4 11 24.1 102.07     Cloudy
08:00 1.9 0.0 87 4 13 24.1 102.09     Mostly Cloudy
09:00 2.8 0.4 84 4 13 24.1 102.14     Mostly Cloudy
10:00 4.0 -0.3 74 3 19 24.1 102.11     Mostly Cloudy
11:00 4.4 -0.1 73 3 26 24.1 102.10     Mostly Cloudy
12:00 4.4 -0.1 73 3 28 24.1 102.05     Mostly Cloudy
13:00 4.6 -0.4 70 3 28 24.1 102.07     Cloudy
14:00 4.4 -1.2 67 4 33 24.1 102.01     Cloudy
15:00 4.0 -0.8 71 3 28 24.1 102.02     Cloudy
16:00 4.0 -0.8 71 3 30 24.1 102.07     Cloudy
17:00 3.0 -1.5 72 2 30 24.1 102.05     Cloudy
18:00 3.0 -1.2 74 3 26 16.1 102.10     Cloudy
19:00 3.1 -1.9 70 3 22 24.1 102.14     Cloudy
20:00 2.8 -2.3 69 4 24 24.1 102.15     Cloudy
21:00 2.7 -2.1 71 4 19 24.1 102.16     Cloudy
22:00 2.6 -2.5 69 4 22 24.1 102.18     Cloudy
23:00 2.2 -2.1 73 3 17 24.1 102.15     Cloudy

Notes on Data Quality.

Legend

  • E = Estimated
  • M = Missing
  • NA = Not Available
  • ‡ = Partner data that is not subject to review by the National Climate Archives
Date modified: